Wetbulb
59.35 59.21 58.87 58.56 58.87 58.42 58.46 58.49 58.27 58.24 58.11 57.99 59.08 59.35 59.49 59.67 59.47 56.59 48.56 55.71 58.36 69.18 67.86 62.97 66.73 66.59 65.61 63.87 65.17 64.60 54.33 53.47 54.90 56.65 58.31 62.13 59.50 62.77 64.04 60.25 62.58 63.87 60.47 61.18 66.33
58.81 58.59 57.89 57.55 57.68 57.80 57.87 57.83 58.09 58.18 58.08 57.88 58.60 59.35 59.49 59.85 55.15 51.44 59.45 67.75 69.47 69.59 56.34 58.07 60.30 65.21 62.20 61.63 61.55 58.12 53.35 55.36 59.65 60.20 59.50 61.16 61.92 60.89 59.98 59.98 61.01 61.16 63.34 65.60 66.56
57.36 57.15 56.89 56.85 57.01 57.02 56.95 57.17 57.50 57.65 57.71 58.19 58.57 59.13 59.32 58.57 52.81 55.95 68.77 69.54 70.81 67.28 53.38 55.84 63.52 63.62 59.89 59.77 60.02 60.43 55.78 59.19 60.16 62.23 61.98 60.74 62.68 63.01 59.70 57.35 60.75 59.71 62.02 64.42 65.02
56.78 56.58 56.47 56.31 56.52 56.75 56.81 56.72 56.99 57.28 57.18 58.33 58.57 59.29 59.57 54.79 46.64 59.05 71.04 72.16 70.83 57.72 56.07 55.05 55.13 59.25 57.71 57.76 62.36 58.11 60.43 60.09 61.40 62.53 62.26 60.81 62.65 60.09 61.08 61.02 63.76 63.61 64.19 64.36 63.96
56.89 56.92 56.22 55.92 56.14 56.37 57.30 57.57 57.21 57.18 57.71 58.20 58.73 59.29 54.39 50.79 54.34 66.18 72.31 70.89 60.71 56.03 55.83 56.20 54.26 60.42 58.96 61.06 61.94 59.25 60.97 61.92 62.10 61.16 62.86 63.60 61.74 61.71 61.20 64.47 64.77 65.04 64.74 63.81 63.93
57.05 56.99 56.97 56.74 56.29 56.12 56.46 56.94 56.92 57.40 57.74 58.29 58.89 59.58 52.45 47.82 61.16 65.35 61.14 57.32 55.92 56.87 55.97 56.34 55.73 61.91 62.26 59.95 59.51 62.02 62.47 61.76 61.63 61.50 62.59 60.91 61.39 61.65 61.40 64.36 63.73 64.31 63.55 63.79 63.91
57.49 57.10 56.92 56.34 56.06 56.21 55.39 55.22 56.19 57.54 57.88 58.50 59.75 58.54 52.72 52.53 60.60 58.72 54.64 52.67 56.21 55.59 53.23 55.17 61.21 57.27 63.05 60.14 63.78 63.08 59.76 60.83 60.12 61.00 60.45 61.79 58.94 58.96 62.43 63.34 62.47 63.26 63.77 64.16 64.28
57.58 57.24 56.97 56.68 57.13 56.65 55.41 54.10 54.84 57.31 58.25 59.59 60.35 54.96 51.63 59.90 58.98 55.67 53.53 52.13 55.62 56.23 55.48 55.55 53.94 60.86 60.99 61.41 60.49 60.29 60.13 53.86 59.26 60.32 61.18 60.55 54.41 60.14 62.34 62.08 61.15 62.49 63.65 64.29 63.52
56.90 56.96 56.86 56.53 55.77 55.46 54.63 53.95 56.06 57.86 59.35 60.66 53.06 51.24 49.79 62.26 56.44 56.04 53.99 51.79 50.76 50.63 52.01 56.08 56.41 59.45 59.75 54.44 51.28 54.37 50.10 52.80 55.84 60.40 60.00 58.84 55.58 60.26 63.72 61.33 60.00 60.84 61.67 62.59 62.87
56.74 56.69 56.46 56.14 55.48 54.49 53.34 54.98 58.77 58.46 58.90 59.39 58.52 49.28 53.16 53.02 51.82 55.14 54.30 54.16 52.40 48.61 49.52 50.56 52.44 51.86 53.01 49.80 44.36 50.23 50.40 53.67 52.93 58.20 59.02 56.61 56.01 59.48 61.36 62.11 58.94 60.33 60.64 60.97 61.07
57.21 57.04 56.38 55.99 54.96 53.68 50.11 50.93 48.92 48.28 52.74 49.15 50.03 51.18 53.97 56.31 54.48 52.96 53.87 52.14 48.62 47.36 42.41 44.80 46.99 48.70 52.17 53.25 53.60 53.10 53.50 51.33 55.42 59.57 57.27 55.72 55.76 58.00 60.01 61.12 60.26 58.50 59.26 60.08 61.12
56.74 56.60 56.45 55.68 54.39 53.69 48.69 50.48 50.26 51.81 46.60 52.88 54.02 54.19 56.14 54.23 49.34 51.20 51.06 45.78 45.12 41.76 42.48 41.73 41.08 46.15 53.59 54.49 53.94 52.57 52.30 50.07 54.53 57.97 55.98 55.17 54.15 57.32 59.73 59.58 61.41 60.68 59.41 59.97 60.42
56.50 56.21 55.58 54.64 53.58 49.61 48.52 49.80 54.26 52.44 45.66 50.06 52.78 53.15 53.51 54.31 49.69 50.44 51.16 46.65 42.98 40.38 40.67 39.65 46.06 47.77 48.58 48.31 48.96 52.16 50.37 49.33 49.61 55.88 57.64 54.72 51.56 55.25 58.73 59.77 61.58 61.53 61.62 60.78 61.11
56.24 55.91 54.96 52.83 47.77 47.71 47.97 53.26 50.86 50.89 42.09 46.71 47.95 52.73 50.95 50.57 47.56 53.26 51.66 48.70 45.01 42.55 42.04 40.98 45.36 46.01 45.46 45.59 52.55 48.18 54.17 53.49 53.32 50.96 44.91 51.96 41.88 49.54 54.80 57.04 59.45 60.61 61.69 61.45 62.16
55.83 55.34 53.97 52.38 45.07 46.22 50.14 49.45 48.93 50.21 35.13 49.80 48.40 53.45 49.29 49.07 48.50 49.58 51.01 49.28 46.08 45.92 44.32 44.52 45.14 44.88 44.42 48.04 54.71 49.67 54.93 53.97 53.92 49.70 45.34 47.70 45.43 48.75 53.21 53.61 56.95 59.28 60.39 62.60 63.21
55.14 54.29 53.37 48.48 45.60 49.23 51.26 48.47 50.99 42.64 36.77 47.03 49.38 47.56 47.03 46.88 47.42 48.79 49.41 49.76 49.38 45.85 44.35 45.55 48.21 46.13 46.51 49.19 52.73 55.36 49.75 48.08 47.05 47.09 41.47 42.75 45.10 45.35 49.22 53.01 55.33 59.24 60.83 62.30 63.67
53.71 52.63 51.83 52.74 45.88 47.96 48.52 50.86 42.34 36.98 48.04 46.11 43.60 44.43 44.86 44.75 46.21 46.53 46.06 42.84 42.19 39.26 37.58 43.59 44.47 47.11 48.83 45.14 46.38 47.28 41.79 35.88 37.96 39.83 39.28 45.09 44.59 46.12 52.37 56.25 57.22 57.39 59.31 60.98 63.15
52.19 51.12 51.35 52.84 49.84 48.19 49.98 45.84 36.42 45.06 45.32 47.93 44.90 43.32 43.71 45.36 44.89 45.35 43.53 41.59 43.32 41.62 38.01 38.26 39.72 45.10 47.51 44.64 42.70 39.70 39.29 35.19 32.06 32.68 36.39 45.76 41.47 45.67 54.77 56.98 59.37 60.09 60.55 62.32 62.22
51.60 49.62 47.29 50.22 52.23 47.62 46.95 37.48 39.39 43.94 48.01 46.61 44.53 39.91 40.89 43.86 44.76 43.93 43.04 41.77 44.04 44.16 40.28 38.21 40.27 48.84 51.35 49.24 44.88 41.31 40.80 42.12 38.94 35.66 36.78 39.32 45.07 50.87 54.78 55.63 58.06 59.48 60.96 60.96 62.36
48.47 47.40 48.26 51.58 51.36 48.42 43.23 37.32 42.08 47.81 48.35 46.45 40.83 42.65 38.87 41.53 42.45 41.87 41.77 45.52 45.98 46.11 44.30 41.85 39.58 43.63 49.44 51.29 50.68 46.18 48.05 41.18 38.83 33.12 31.76 37.35 41.36 42.97 49.31 53.11 56.71 58.99 58.84 60.12 63.53
48.13 46.21 51.26 50.18 48.62 46.29 39.40 39.22 45.63 49.85 49.66 45.71 43.89 42.83 42.40 42.27 43.33 40.74 42.82 46.50 48.14 46.09 46.50 41.42 40.62 42.05 46.30 44.69 43.27 44.74 42.29 41.82 40.94 38.27 34.02 33.46 38.37 48.73 50.82 54.54 54.92 57.43 58.76 60.47 62.81
46.18 43.39 50.61 51.49 44.75 39.67 40.55 43.28 47.45 48.27 49.94 47.99 47.14 45.85 43.23 43.58 43.12 42.81 45.05 46.35 49.92 48.32 45.05 42.83 40.94 39.02 42.36 46.81 48.72 46.74 41.33 41.99 37.18 36.13 38.47 38.05 39.90 52.74 55.27 56.16 56.28 56.44 58.57 59.30 63.52
44.08 44.33 52.48 50.42 41.90 41.12 43.41 46.40 48.72 47.63 48.10 48.68 47.94 48.03 46.32 42.82 41.10 45.48 47.36 49.20 50.00 48.22 45.21 45.52 39.84 36.89 40.13 42.63 44.79 42.19 42.59 40.40 40.51 40.67 38.91 37.73 39.77 52.97 55.53 56.72 57.59 57.39 57.16 59.47 63.39
45.85 43.23 48.54 48.12 45.33 42.65 42.22 43.66 45.31 50.62 49.66 48.42 48.90 48.02 43.40 41.69 42.67 44.43 46.06 49.32 50.20 50.83 56.55 48.46 37.03 39.42 36.90 38.55 40.64 41.54 44.04 43.54 40.50 37.39 37.28 40.45 42.43 47.65 52.57 54.01 56.43 55.77 60.82 61.79 63.01
46.78 43.27 46.06 43.34 45.18 44.97 43.15 44.12 45.30 45.09 48.66 48.71 48.24 50.21 47.26 40.00 40.99 42.37 44.94 45.70 50.50 55.62 45.05 42.77 37.76 37.64 39.33 41.82 42.33 42.59 44.20 43.84 42.48 41.53 41.07 41.48 43.99 47.83 50.44 53.18 55.53 56.91 61.10 60.78 61.20
47.30 46.80 47.80 45.46 45.05 43.68 42.78 41.52 45.58 46.56 45.97 46.34 46.56 49.88 49.98 43.86 43.95 42.61 43.75 42.69 45.01 46.68 42.17 41.49 37.93 37.65 39.50 43.72 43.43 42.91 45.43 45.89 45.11 44.71 46.25 45.96 46.12 50.81 52.20 54.45 55.62 56.13 59.28 59.66 59.81
47.86 48.73 48.26 44.87 44.45 42.02 41.56 45.58 47.82 48.58 48.98 50.23 50.36 49.07 49.10 49.86 51.70 49.85 48.03 45.12 44.94 45.12 41.82 41.10 39.34 36.77 35.06 39.63 40.46 38.24 42.84 43.82 45.39 47.06 47.60 44.81 48.37 52.88 51.97 53.97 54.80 56.93 58.49 58.81 59.39
MSLP
1015.97 1015.71 1015.45 1015.18 1014.89 1014.61 1014.32 1014.05 1013.79 1013.50 1013.30 1013.13 1012.88 1012.64 1012.41 1012.17 1011.61 1011.45 1010.45 1008.86 1008.54 1008.59 1008.78 1009.12 1009.43 1009.74 1010.04 1010.80 1011.03 1011.26 1011.86 1012.18 1012.22 1011.89 1011.68 1011.10 1011.17 1011.49 1011.51 1011.91 1012.24 1012.69 1013.33 1013.99 1014.97
1015.96 1015.68 1015.39 1015.08 1014.79 1014.52 1014.22 1013.91 1013.59 1013.33 1013.15 1012.98 1012.78 1012.56 1012.33 1012.16 1011.77 1010.53 1008.29 1008.36 1008.32 1008.65 1008.89 1009.18 1009.76 1009.92 1010.60 1011.06 1011.32 1011.62 1012.19 1012.34 1012.47 1012.28 1012.21 1012.01 1011.64 1011.53 1011.85 1012.27 1012.73 1013.33 1013.83 1014.51 1015.22
1015.97 1015.66 1015.34 1014.98 1014.61 1014.38 1014.11 1013.80 1013.43 1013.15 1013.01 1012.78 1012.58 1012.41 1012.23 1012.09 1011.28 1008.55 1007.52 1008.16 1008.33 1008.73 1008.73 1009.00 1009.41 1009.83 1010.59 1011.01 1011.43 1011.78 1012.06 1012.27 1012.63 1012.61 1012.61 1012.36 1011.76 1011.55 1011.93 1012.38 1012.60 1013.22 1014.05 1014.84 1015.38
1016.00 1015.60 1015.21 1014.87 1014.50 1014.18 1013.90 1013.63 1013.30 1013.00 1012.85 1012.61 1012.47 1012.30 1012.08 1011.87 1010.13 1007.74 1007.53 1008.09 1008.36 1008.64 1008.84 1009.11 1009.61 1010.14 1010.79 1011.14 1011.48 1011.76 1012.43 1012.56 1012.80 1013.03 1012.85 1012.79 1012.25 1011.60 1011.66 1011.94 1012.12 1013.04 1013.75 1014.63 1015.38
1015.90 1015.45 1015.06 1014.69 1014.33 1014.04 1013.68 1013.35 1013.06 1012.84 1012.66 1012.54 1012.38 1012.20 1011.95 1010.96 1008.71 1007.68 1007.70 1008.22 1008.68 1008.83 1008.89 1009.05 1009.42 1009.85 1010.47 1010.96 1011.37 1011.70 1012.14 1012.59 1012.91 1013.05 1012.95 1012.57 1012.33 1011.99 1011.84 1011.77 1012.38 1013.32 1014.07 1014.85 1015.34
1015.72 1015.27 1014.82 1014.44 1014.13 1013.86 1013.54 1013.17 1012.87 1012.62 1012.47 1012.37 1012.21 1012.14 1011.73 1009.74 1007.48 1007.68 1008.09 1008.63 1008.75 1008.98 1008.99 1008.93 1008.88 1009.22 1010.12 1010.79 1011.03 1011.40 1011.95 1012.45 1012.87 1013.12 1013.03 1012.90 1012.80 1012.43 1011.73 1012.15 1012.73 1013.47 1014.17 1014.89 1015.00
1015.54 1015.08 1014.64 1014.24 1013.94 1013.64 1013.36 1013.03 1012.72 1012.46 1012.33 1012.25 1012.11 1012.03 1011.05 1008.46 1007.57 1007.85 1008.15 1008.45 1008.57 1008.61 1008.86 1008.66 1008.64 1008.99 1009.97 1010.66 1010.97 1011.22 1012.02 1012.66 1013.30 1013.41 1013.39 1013.40 1012.96 1012.50 1011.96 1012.44 1013.04 1013.55 1014.12 1014.71 1015.03
1015.46 1014.92 1014.46 1014.07 1013.66 1013.29 1012.94 1012.67 1012.44 1012.24 1012.17 1012.10 1012.07 1011.81 1009.90 1007.58 1007.57 1007.94 1008.10 1008.27 1008.32 1008.48 1008.59 1008.52 1008.60 1009.23 1010.03 1010.80 1011.11 1011.44 1011.88 1012.57 1012.87 1013.25 1013.23 1013.64 1013.50 1012.99 1012.48 1012.73 1013.29 1013.68 1014.12 1014.51 1014.90
1015.43 1014.82 1014.30 1013.86 1013.46 1013.02 1012.46 1012.18 1011.92 1011.90 1011.96 1011.95 1012.03 1011.36 1008.90 1007.42 1007.60 1007.29 1007.54 1007.86 1008.02 1008.16 1008.37 1008.44 1008.77 1009.86 1010.60 1011.14 1011.60 1011.94 1012.20 1012.41 1012.89 1013.00 1013.01 1013.63 1013.81 1013.54 1013.07 1013.06 1013.65 1013.78 1014.04 1014.24 1014.68
1015.24 1014.62 1014.05 1013.57 1013.16 1012.68 1012.21 1011.76 1011.62 1011.88 1012.00 1011.93 1011.54 1010.95 1008.27 1007.29 1006.86 1007.03 1007.24 1007.56 1007.79 1007.89 1008.17 1008.60 1009.61 1010.48 1011.14 1011.50 1011.79 1011.56 1011.97 1012.38 1012.52 1012.91 1013.26 1013.47 1013.49 1013.11 1012.79 1013.13 1013.56 1013.72 1013.91 1014.14 1014.31
1014.81 1014.27 1013.76 1013.25 1012.82 1012.46 1012.32 1012.14 1012.10 1011.73 1011.35 1010.21 1009.74 1009.00 1007.78 1006.81 1006.47 1006.78 1006.98 1007.35 1007.74 1008.17 1008.91 1009.38 1010.17 1010.41 1010.43 1010.79 1010.83 1011.04 1011.60 1012.15 1012.27 1012.30 1012.74 1013.18 1013.41 1013.30 1013.51 1013.58 1013.68 1013.69 1013.84 1013.92 1013.82
1014.64 1013.91 1013.30 1012.85 1012.41 1011.93 1012.19 1011.45 1010.75 1010.40 1010.10 1008.94 1008.66 1008.20 1007.45 1006.93 1006.82 1006.77 1006.85 1007.49 1007.93 1008.65 1009.21 1009.97 1009.94 1009.56 1010.00 1010.34 1010.66 1010.93 1011.47 1011.88 1012.32 1012.45 1012.84 1013.20 1013.38 1013.62 1013.74 1013.59 1013.39 1013.59 1013.48 1013.50 1013.76
1014.50 1013.80 1013.11 1012.38 1012.04 1011.90 1011.42 1010.40 1009.76 1009.94 1010.08 1008.25 1007.59 1007.24 1006.69 1006.86 1006.83 1006.68 1006.97 1007.45 1008.09 1008.87 1009.31 1009.69 1009.07 1009.03 1009.41 1009.77 1010.21 1010.74 1011.06 1011.59 1012.22 1012.82 1013.15 1013.51 1013.79 1013.64 1013.64 1013.59 1013.40 1013.50 1013.25 1013.10 1013.23
1014.24 1013.71 1013.15 1012.31 1012.22 1011.60 1010.58 1009.58 1009.69 1009.80 1009.61 1008.01 1006.93 1005.92 1006.11 1006.29 1006.63 1006.30 1006.59 1007.29 1008.01 1008.52 1009.21 1009.27 1008.44 1008.41 1008.77 1009.05 1009.58 1010.23 1010.02 1011.34 1012.40 1013.19 1013.94 1014.04 1014.27 1013.58 1013.51 1013.62 1013.33 1013.08 1013.12 1012.79 1012.86
1013.91 1013.48 1013.17 1013.00 1012.51 1011.38 1009.76 1009.51 1009.49 1009.76 1009.34 1007.25 1006.14 1005.23 1005.74 1006.32 1006.38 1006.45 1006.36 1006.86 1007.64 1008.20 1008.91 1008.45 1007.91 1007.73 1007.86 1007.89 1008.67 1009.81 1010.02 1011.67 1012.94 1013.91 1014.62 1014.66 1014.78 1013.58 1013.45 1013.34 1013.07 1012.83 1012.72 1012.39 1012.19
1013.31 1013.05 1012.82 1012.92 1012.55 1010.02 1009.37 1009.43 1009.50 1010.17 1008.61 1006.73 1005.75 1005.64 1006.14 1006.31 1006.39 1006.44 1006.64 1006.94 1007.41 1007.98 1008.32 1008.17 1007.57 1007.35 1007.16 1007.64 1008.56 1009.82 1011.14 1012.61 1013.93 1014.75 1015.66 1015.23 1015.24 1014.08 1013.45 1012.97 1012.70 1012.28 1012.03 1011.91 1011.75
1012.64 1012.04 1012.30 1011.59 1010.61 1009.41 1009.40 1009.73 1010.51 1009.98 1008.09 1007.19 1006.31 1006.10 1006.27 1006.62 1006.62 1006.59 1007.03 1007.56 1008.03 1008.53 1008.79 1008.27 1007.71 1007.23 1007.03 1008.17 1009.21 1010.34 1011.77 1014.10 1015.57 1016.22 1016.36 1015.81 1015.66 1013.88 1013.13 1012.91 1012.64 1012.43 1012.16 1012.00 1011.92
1012.10 1011.21 1011.20 1010.65 1010.04 1009.88 1009.81 1010.60 1010.75 1009.17 1008.21 1007.22 1006.75 1006.59 1006.71 1006.70 1006.86 1007.02 1007.37 1008.02 1008.14 1008.50 1009.28 1009.05 1008.32 1007.78 1007.39 1007.84 1009.08 1010.61 1011.85 1013.80 1015.62 1017.12 1016.59 1016.17 1015.36 1013.77 1013.22 1013.12 1012.88 1012.54 1012.07 1011.87 1011.81
1011.55 1011.03 1011.11 1010.02 1009.86 1010.25 1010.57 1011.31 1010.17 1009.22 1008.26 1007.74 1007.19 1007.02 1006.83 1006.67 1006.97 1007.26 1007.67 1007.92 1007.84 1008.11 1008.66 1009.14 1009.00 1008.44 1008.12 1008.24 1009.19 1011.03 1012.33 1013.48 1015.29 1017.13 1017.15 1016.17 1014.93 1013.80 1013.55 1013.40 1013.12 1012.84 1012.52 1012.51 1012.05
1012.52 1011.84 1010.71 1009.83 1009.85 1010.07 1010.86 1011.17 1010.28 1009.10 1008.11 1007.68 1007.63 1007.27 1007.17 1006.92 1007.24 1007.35 1007.55 1007.02 1007.31 1007.48 1007.70 1009.11 1009.52 1009.25 1008.85 1008.87 1009.64 1010.43 1012.26 1013.77 1015.22 1017.03 1017.49 1016.44 1015.48 1014.17 1013.65 1013.63 1013.46 1013.25 1013.07 1012.58 1012.15
1012.59 1011.92 1010.67 1010.03 1010.03 1010.66 1011.60 1011.24 1009.99 1008.67 1008.01 1007.72 1007.53 1007.54 1007.49 1007.23 1006.94 1007.18 1007.17 1006.73 1006.76 1007.56 1008.02 1009.28 1010.03 1010.17 1009.73 1010.06 1010.50 1011.38 1012.59 1014.35 1015.74 1016.87 1017.35 1016.92 1015.33 1013.45 1013.35 1013.32 1013.54 1013.68 1013.51 1012.90 1012.12
1014.15 1012.88 1010.51 1009.92 1010.99 1011.99 1011.79 1010.80 1009.72 1008.62 1007.72 1007.53 1007.42 1007.41 1007.29 1007.06 1006.97 1006.87 1006.58 1006.32 1006.21 1006.88 1008.46 1009.49 1010.72 1011.44 1011.36 1011.11 1011.22 1011.65 1012.69 1014.01 1015.81 1017.14 1017.38 1016.82 1014.62 1013.09 1012.98 1013.20 1013.50 1013.67 1013.45 1013.29 1012.78
1015.82 1014.27 1010.99 1010.57 1011.88 1012.44 1011.76 1010.82 1009.71 1008.85 1008.27 1007.82 1007.54 1007.15 1006.97 1006.84 1007.13 1006.48 1006.11 1005.81 1006.17 1006.91 1007.93 1009.22 1011.10 1012.28 1012.15 1011.90 1011.62 1012.07 1012.88 1014.01 1015.00 1015.99 1016.82 1016.50 1014.47 1012.99 1013.01 1013.25 1013.37 1013.50 1013.56 1013.40 1013.16
1016.33 1015.25 1013.25 1012.56 1013.26 1013.05 1012.69 1011.37 1010.18 1009.11 1008.65 1008.34 1007.80 1007.31 1007.12 1006.81 1006.68 1006.60 1006.23 1006.18 1006.44 1007.15 1007.78 1008.67 1011.38 1011.88 1012.00 1011.73 1011.71 1012.16 1012.64 1013.54 1014.31 1015.57 1016.02 1015.33 1014.04 1012.96 1012.68 1012.94 1013.20 1013.27 1013.40 1013.40 1013.03
1016.77 1016.65 1016.01 1015.00 1014.40 1014.04 1013.26 1012.10 1010.98 1010.22 1009.26 1008.67 1008.17 1008.07 1007.79 1007.26 1007.07 1006.81 1006.49 1006.65 1007.05 1007.71 1008.51 1009.53 1011.41 1011.94 1011.73 1011.45 1011.43 1011.48 1011.94 1012.80 1013.60 1013.85 1014.25 1013.71 1013.53 1012.10 1012.02 1012.30 1012.84 1013.25 1013.35 1013.17 1012.72
1017.47 1017.31 1016.46 1015.87 1015.13 1014.52 1013.43 1012.56 1011.81 1011.21 1010.52 1009.40 1008.86 1008.52 1008.02 1007.41 1007.22 1007.09 1006.94 1006.80 1007.16 1008.12 1009.01 1010.32 1011.88 1012.30 1012.16 1011.43 1011.08 1011.08 1011.28 1011.78 1012.54 1013.02 1013.06 1012.86 1012.42 1011.24 1011.74 1012.17 1012.81 1013.16 1013.14 1013.12 1013.03
1018.03 1017.68 1017.30 1016.31 1015.58 1014.91 1013.94 1013.17 1012.51 1012.08 1010.81 1010.08 1009.63 1009.16 1008.14 1007.49 1007.56 1006.75 1006.57 1006.67 1006.99 1007.83 1009.62 1010.83 1012.06 1013.14 1012.96 1011.94 1011.38 1011.06 1010.37 1010.72 1011.21 1011.27 1011.58 1012.20 1011.20 1011.18 1011.71 1012.01 1012.09 1012.61 1012.86 1012.96 1013.09
Wind_Speed
14 13 12 12 11 11 11 11 11 10 10 10 11 11 11 11 12 2 5 5 5 8 5 5 3 2 4 4 3 1 4 3 3 4 3 6 4 3 3 8 1 2 5 8 12
15 14 14 13 12 11 11 11 11 11 10 11 10 10 10 11 2 4 8 7 4 9 5 6 4 2 4 2 2 4 3 4 2 3 1 6 4 6 4 3 4 9 14 15 12
16 16 14 14 12 11 11 11 11 11 11 11 11 10 9 6 2 4 6 9 9 7 3 3 5 3 3 2 3 2 3 4 3 4 3 5 3 3 9 3 5 11 13 13 12
16 16 15 14 13 12 11 10 11 11 11 11 10 9 9 1 3 2 6 12 9 6 4 5 4 3 3 2 2 4 7 4 1 2 4 4 7 5 11 3 8 11 15 12 12
16 17 15 14 13 12 11 11 11 12 11 10 9 8 2 1 6 4 12 11 6 5 6 5 4 4 3 3 4 3 6 7 5 1 2 5 5 5 7 7 12 11 12 12 10
18 18 16 14 13 13 12 12 12 12 10 8 7 6 1 0 2 8 10 7 6 4 4 3 5 5 6 3 2 4 6 10 7 3 6 4 4 7 7 9 12 13 12 9 12
19 19 17 15 14 13 13 13 12 11 9 6 4 2 1 5 2 6 9 6 5 5 5 4 2 4 4 4 2 6 7 4 6 3 2 1 5 5 4 11 13 12 11 10 9
19 20 18 17 15 14 13 14 12 9 7 6 3 1 5 1 5 5 3 3 4 4 1 3 2 5 4 3 4 1 3 4 5 6 4 7 2 8 6 13 11 11 10 11 8
20 21 19 18 16 15 15 15 11 6 4 4 0 1 6 1 2 5 6 3 5 3 4 3 4 4 3 4 4 3 2 2 5 10 3 5 6 11 3 8 8 9 10 10 9
20 21 20 19 16 15 16 2 8 7 1 3 3 2 3 2 3 4 4 1 1 1 3 5 5 4 3 4 4 2 2 1 2 7 5 3 4 13 8 6 9 10 10 9 8
21 19 21 20 17 13 4 2 4 3 2 6 4 3 4 3 2 2 3 4 3 7 3 4 5 8 11 5 1 0 2 3 1 4 5 6 5 13 8 6 6 7 8 9 10
22 21 20 19 20 7 2 5 5 2 8 5 4 6 4 2 2 2 4 3 2 2 3 6 6 5 6 7 6 3 1 3 1 2 2 4 5 6 6 7 9 7 8 11 6
22 21 21 21 15 2 0 4 5 4 2 7 5 4 5 8 4 7 7 3 3 3 4 6 5 7 6 5 5 4 6 5 3 4 2 4 3 5 5 5 8 7 5 6 12
22 20 19 27 3 3 3 3 3 5 6 6 3 5 4 4 2 4 6 5 1 8 5 5 5 3 4 6 7 3 7 7 8 4 2 2 3 4 3 6 5 8 6 9 13
23 20 14 8 4 2 2 3 3 4 2 2 3 2 1 8 2 3 4 3 4 4 5 7 3 2 2 4 8 4 7 7 4 5 2 3 3 5 2 5 8 10 9 9 9
25 20 14 2 1 8 6 4 4 8 5 3 4 3 5 1 1 3 3 2 2 3 1 6 2 3 4 5 3 8 9 9 6 3 3 1 4 6 2 3 3 4 9 13 10
28 23 6 1 4 2 4 5 6 4 4 3 3 2 3 4 3 5 5 2 4 3 2 5 1 4 1 8 3 4 7 5 5 4 6 3 2 9 3 4 4 6 7 9 8
29 19 6 4 4 5 4 7 3 4 5 3 2 1 5 6 4 4 5 3 4 4 3 2 6 6 4 3 8 2 6 8 6 5 4 3 5 6 2 3 4 5 5 5 6
24 2 1 4 6 2 7 4 8 5 2 5 5 3 3 3 4 4 6 6 7 9 6 5 3 4 3 3 4 4 3 4 9 3 2 3 6 4 4 3 3 2 4 3 4
5 4 4 5 5 5 6 5 3 3 3 4 5 4 1 3 6 6 6 4 6 10 3 5 3 0 3 1 8 4 5 4 4 3 3 5 5 6 5 3 3 4 4 5 6
3 5 3 3 3 6 5 6 5 6 1 1 2 2 4 3 6 6 7 3 4 4 6 4 4 4 2 5 3 2 3 7 6 4 5 2 7 5 7 6 5 4 5 7 6
4 3 3 2 4 1 3 5 4 5 3 4 3 5 4 2 3 4 9 5 6 8 8 3 6 2 1 2 2 2 3 5 6 3 2 4 8 3 6 5 5 5 6 7 8
3 4 4 3 2 3 5 4 3 2 3 3 3 5 5 3 2 4 4 2 7 7 10 8 3 4 7 8 4 1 2 5 6 4 5 5 7 1 4 4 5 6 5 5 6
3 5 5 6 1 3 5 4 4 7 3 3 4 1 2 2 5 6 4 2 3 4 10 10 4 8 9 7 4 3 4 4 5 4 5 7 6 7 7 6 4 1 2 0 4
3 1 2 4 3 4 1 3 3 5 4 4 3 4 4 1 2 5 3 2 5 6 5 6 4 4 4 4 4 4 4 7 7 5 6 4 7 9 6 7 7 5 3 2 2
2 3 4 3 3 2 3 1 2 4 2 5 1 8 6 2 6 3 1 3 6 2 4 3 2 2 5 3 5 4 6 8 4 4 4 3 7 6 2 3 6 7 6 4 3
3 3 1 3 4 2 3 0 2 5 7 6 7 6 6 4 7 10 8 4 6 10 5 5 8 4 4 2 4 4 7 6 6 5 8 7 10 2 4 3 2 6 5 5 5
Wind_Direction
354 353 348 342 336 332 327 324 320 317 317 318 319 320 322 326 315 156 245 204 187 147 144 133 82 84 60 60 11 88 63 85 62 62 63 57 117 166 64 132 121 57 112 135 125
353 351 346 340 333 328 323 317 313 312 313 314 313 319 323 331 311 242 242 157 144 143 111 144 136 119 54 58 36 59 82 128 48 29 20 332 311 152 104 159 52 74 89 111 130
349 347 343 337 331 325 319 312 309 309 311 309 314 317 320 328 291 245 163 165 170 155 135 156 133 110 64 4 47 75 68 96 58 47 5 325 254 165 132 234 198 149 137 139 144
350 345 340 336 330 325 320 314 308 307 306 309 313 315 315 274 127 90 147 145 155 151 123 126 133 105 91 47 49 79 98 130 86 125 8 356 309 167 161 230 124 153 148 144 156
350 348 344 336 330 324 317 310 305 301 301 306 309 314 326 322 255 98 117 128 121 139 163 161 143 141 136 138 131 86 134 133 124 239 2 337 17 327 187 129 112 137 150 152 166
351 348 342 335 328 323 318 311 305 300 299 301 300 309 307 136 73 128 116 126 147 150 173 194 216 171 107 145 82 124 143 139 161 99 13 21 1 358 236 125 136 152 160 175 176
348 349 345 339 332 326 319 312 307 301 295 291 283 277 320 227 57 131 134 165 183 170 157 226 197 77 128 134 99 134 123 127 150 183 151 306 306 216 209 146 158 167 172 180 192
347 346 344 338 332 325 314 303 297 292 286 274 242 259 247 14 117 126 168 171 184 213 216 162 107 101 83 140 47 96 103 147 152 141 265 142 320 351 42 153 175 174 190 188 204
345 343 341 339 336 326 311 304 275 237 231 158 183 29 282 57 189 200 162 179 160 202 218 186 119 102 77 86 17 81 143 218 131 182 125 196 114 262 272 165 181 191 197 202 200
343 341 340 338 335 329 324 280 130 126 221 209 252 14 283 222 210 170 192 182 84 3 54 65 58 85 46 92 212 207 129 256 165 193 217 244 211 205 200 214 191 198 209 201 198
335 335 337 336 334 326 335 75 16 359 165 208 220 250 279 287 127 199 144 107 96 57 99 13 81 199 198 189 191 293 133 129 205 152 167 193 210 192 223 225 205 214 197 209 207
335 333 333 332 331 298 197 98 153 171 313 238 239 274 273 284 142 242 112 113 104 142 107 27 234 204 183 202 226 231 163 183 357 123 130 171 214 190 181 230 220 214 201 198 182
333 331 332 332 333 142 161 217 114 98 137 297 202 191 196 141 212 202 131 145 115 128 166 161 238 105 162 200 220 186 192 164 151 120 57 104 306 187 212 209 216 246 221 204 186
329 330 333 329 348 307 258 165 316 181 62 281 269 272 116 118 244 184 163 135 132 195 166 227 264 222 167 217 143 229 162 132 129 97 212 7 271 252 192 220 219 221 202 200 206
326 328 328 335 288 249 174 330 125 61 42 211 217 80 79 137 188 211 201 75 189 184 114 256 264 241 234 224 158 242 117 113 114 93 82 353 60 257 200 210 222 219 211 217 206
322 325 325 120 195 244 315 332 60 43 256 298 185 165 121 133 227 112 138 87 172 159 296 241 273 219 207 60 94 124 82 55 57 81 13 290 139 282 252 231 272 255 211 205 211
322 320 286 235 223 315 324 48 43 146 302 333 251 163 173 202 216 150 156 164 174 101 328 331 256 302 189 90 47 93 63 21 18 15 222 343 39 243 255 303 284 264 249 217 214
325 320 184 226 318 325 55 53 195 238 256 313 340 91 179 166 232 155 120 196 220 101 105 125 346 7 349 162 169 85 137 150 188 193 248 42 239 271 132 14 349 357 346 202 182
321 339 159 268 202 0 81 102 210 209 293 327 317 174 225 243 182 141 198 198 215 179 149 127 328 315 44 66 102 187 82 166 105 13 61 233 291 300 176 14 340 293 6 330 211
333 344 331 5 140 67 80 218 238 223 317 37 36 4 216 243 166 164 168 214 210 196 121 196 110 95 270 83 46 101 142 72 16 141 257 290 275 241 217 239 239 216 242 268 277
14 36 280 52 48 49 150 222 266 253 287 328 243 260 254 263 179 183 201 273 195 108 93 124 105 287 357 24 156 47 59 54 107 110 161 263 265 216 192 206 203 243 272 274 286
357 38 313 53 53 39 158 193 230 275 287 258 190 202 231 281 257 202 189 229 159 137 140 147 124 108 73 340 2 93 128 129 119 219 105 151 276 229 210 191 168 216 264 301 303
11 275 312 70 112 325 308 287 248 290 324 336 286 205 222 222 246 184 192 189 159 140 165 185 42 70 357 353 7 274 128 96 103 96 189 139 264 223 262 253 238 270 267 315 321
19 352 329 36 35 91 4 299 317 339 262 345 266 16 272 286 187 215 192 100 146 108 82 88 110 153 184 199 158 180 173 154 113 120 175 226 283 282 255 213 181 198 343 2 78
31 326 170 325 349 350 285 288 333 355 326 353 359 58 305 300 346 231 173 102 35 150 76 110 139 166 196 204 184 213 195 169 192 176 164 224 206 264 241 204 179 173 196 296 30
34 15 349 282 314 311 320 93 9 358 288 292 166 323 306 234 188 250 176 199 179 205 93 11 136 154 187 220 194 183 206 199 196 170 272 183 259 233 85 113 146 187 187 231 262
336 335 107 293 322 360 235 173 358 348 283 263 333 333 287 246 302 253 212 206 215 148 133 119 130 116 231 14 355 322 211 186 188 188 153 181 227 119 125 168 182 166 193 209 247